Location: Baggett Branch
(32.6074°N, 97.0167°W)
Time: 19:39:20
(UTC+00:00)

COSMO-SKYMED 1 - Visible Passes

Search period start: 15 May 2026 00:00
Search period end: 25 May 2026 00:00
Orbit: 576 x 577 km, 97.9° (Epoch: 15 May)

Date Brightness Start Highest point End Pass type
(mag) Time Alt. Az. Time Alt. Az. Time Alt. Az.
15 May 5.3 01:45:30 10° NNW 01:48:47 24° WNW 01:52:04 10° SW visible
16 May 5.5 01:49:27 10° NNW 01:52:34 21° WNW 01:55:40 10° WSW visible
17 May 5.5 01:53:24 10° NNW 01:56:20 19° WNW 01:59:16 10° WSW visible
18 May 5.6 01:57:21 10° NNW 02:00:06 18° WNW 02:02:50 10° WSW visible
19 May 5.7 02:01:21 10° NNW 02:03:51 16° WNW 02:06:21 10° WSW visible
20 May 5.8 02:05:23 10° NW 02:07:37 14° WNW 02:09:50 10° WSW visible
21 May 5.9 02:09:27 10° NW 02:11:22 13° WNW 02:13:16 10° W visible
22 May 6.0 02:13:38 10° NW 02:15:07 12° WNW 02:16:35 10° W visible
23 May 6.3 02:18:02 10° NW 02:18:51 11° WNW 02:19:41 10° WNW visible
